SQ4IXR-4 Weather Reports


Display with metric or nautical units.
time (UTC)temp
F
wind
direction
speed
MPH
gust
MPH
rain 1hr
in
rain 24hr
in
rain mn
in
humidity
%
barometer
mb
20260508095337 54 0.0 0.0 0.00 0.00 0.00 10 1021.0
20260508093953 54 0.0 0.0 0.00 0.00 0.00 10 1021.1
20260508092611 54 0.0 0.0 0.00 0.00 0.00 10 1020.9
20260508091228 54 0.0 0.0 0.00 0.00 0.00 10 1020.9
20260508085843 54 0.0 0.0 0.00 0.00 0.00 10 1020.9
20260508084500 54 0.0 0.0 0.00 0.00 0.00 10 1020.7
20260508083118 54 0.0 0.0 0.00 0.00 0.00 10 1020.6
20260508081733 53 0.0 0.0 0.00 0.00 0.00 10 1020.5
20260508080349 52 0.0 0.0 0.00 0.00 0.00 10 1020.6
20260508075006 53 0.0 0.0 0.00 0.00 0.00 10 1020.4
20260508073621 52 0.0 0.0 0.00 0.00 0.00 10 1020.4
20260508072238 52 0.0 0.0 0.00 0.00 0.00 10 1020.3
20260508070856 52 0.0 0.0 0.00 0.00 0.00 10 1020.1
20260508065513 52 0.0 0.0 0.00 0.00 0.00 10 1020.0
20260508064130 53 0.0 0.0 0.00 0.00 0.00 10 1020.0
20260508062747 53 0.0 0.0 0.00 0.00 0.00 96 1019.9
20260508061404 53 0.0 0.0 0.00 0.00 0.00 97 1019.8
20260508060020 53 0.0 0.0 0.00 0.00 0.00 99 1019.6
20260508054637 53 0.0 0.0 0.00 0.00 0.00 10 1019.5
20260508053254 52 0.0 0.0 0.00 0.00 0.00 10 1019.6
20260508051910 52 0.0 0.0 0.00 0.00 0.00 10 1019.6
20260508050526 52 0.0 0.0 0.00 0.00 0.00 10 1019.5
20260508045142 51 0.0 0.0 0.00 0.00 0.00 10 1019.4
20260508043800 52 0.0 0.0 0.00 0.00 0.00 10 1019.5
20260508042416 52 0.0 0.0 0.00 0.00 0.00 10 1019.6
20260508041032 52 0.0 0.0 0.00 0.00 0.00 10 1019.4
20260508035649 52 0.0 0.0 0.00 0.00 0.00 10 1019.3
20260508034305 51 0.0 0.0 0.00 0.00 0.00 10 1019.3
20260508032922 52 0.0 0.0 0.00 0.00 0.00 10 1019.3
20260508031540 52 0.0 0.0 0.00 0.00 0.00 10 1019.1
20260508030155 52 0.0 0.0 0.00 0.00 0.00 10 1019.1
20260508024812 52 0.0 0.0 0.00 0.00 0.00 10 1019.1
20260508023429 52 0.0 0.0 0.00 0.00 0.00 10 1019.0
20260508022048 52 0.0 0.0 0.00 0.00 0.00 98 1019.0
20260508020702 52 0.0 0.0 0.00 0.00 0.00 97 1018.9
20260508015319 52 0.0 0.0 0.00 0.00 0.00 96 1018.8
20260508013936 52 0.0 0.0 0.00 0.00 0.00 96 1018.8
20260508012553 52 0.0 0.0 0.00 0.00 0.00 97 1018.8
20260508011210 52 0.0 0.0 0.00 0.00 0.00 94 1019.0
20260508005827 53 0.0 0.0 0.00 0.00 0.00 93 1018.9
20260508004442 53 0.0 0.0 0.00 0.00 0.00 92 1019.0
20260508003059 53 0.0 0.0 0.00 0.00 0.00 92 1019.0
20260508001715 53 0.0 0.0 0.00 0.00 0.00 92 1019.0
20260508000334 53 0.0 0.0 0.00 0.00 0.00 91 1018.9
20260507234949 53 0.0 0.0 0.00 0.00 0.00 90 1019.0
20260507233605 53 0.0 0.0 0.00 0.00 0.00 88 1018.9
20260507232221 53 0.0 0.0 0.00 0.00 0.00 88 1019.0
20260507230837 53 0.0 0.0 0.00 0.00 0.00 87 1018.9
20260507225454 53 0.0 0.0 0.00 0.00 0.00 88 1018.9
20260507224111 53 0.0 0.0 0.00 0.00 0.00 88 1019.0
20260507222726 53 0.0 0.0 0.00 0.00 0.00 88 1018.9
20260507221343 53 0.0 0.0 0.00 0.00 0.00 89 1018.6
20260507215959 54 0.0 0.0 0.00 0.00 0.00 89 1018.8
20260507214616 54 0.0 0.0 0.00 0.00 0.00 87 1018.7
20260507213233 54 0.0 0.0 0.00 0.00 0.00 85 1018.5
20260507211851 54 0.0 0.0 0.00 0.00 0.00 85 1018.6
20260507210508 55 0.0 0.0 0.00 0.00 0.00 85 1018.4
20260507205124 55 0.0 0.0 0.00 0.00 0.00 85 1018.4
20260507203741 55 0.0 0.0 0.00 0.00 0.00 86 1018.2
20260507202358 55 0.0 0.0 0.00 0.00 0.00 86 1018.3
20260507201014 55 0.0 0.0 0.00 0.00 0.00 87 1018.0
20260507194250 55 0.0 0.0 0.00 0.00 0.00 86 1017.9
20260507192904 55 0.0 0.0 0.00 0.00 0.00 87 1017.9
20260507191522 56 0.0 0.0 0.00 0.00 0.00 87 1017.9
20260507190138 56 0.0 0.0 0.00 0.00 0.00 86 1017.9
20260507184755 56 0.0 0.0 0.00 0.00 0.00 86 1017.4
20260507183412 56 0.0 0.0 0.00 0.00 0.00 85 1017.3
20260507182028 57 0.0 0.0 0.00 0.00 0.00 84 1017.2
20260507180646 57 0.0 0.0 0.00 0.00 0.00 83 1017.1
20260507175306 57 0.0 0.0 0.00 0.00 0.00 79 1016.8
20260507173919 58 0.0 0.0 0.00 0.00 0.00 80 1016.7
20260507172536 58 0.0 0.0 0.00 0.00 0.00 80 1016.5
20260507171151 58 0.0 0.0 0.00 0.00 0.00 78 1016.2
20260507165809 59 0.0 0.0 0.00 0.00 0.00 76 1016.1
20260507164427 60 0.0 0.0 0.00 0.00 0.00 75 1016.1
20260507163044 60 0.0 0.0 0.00 0.00 0.00 72 1015.8
20260507161700 61 0.0 0.0 0.00 0.00 0.00 70 1015.7
20260507160317 62 0.0 0.0 0.00 0.00 0.00 67 1015.7
20260507154935 63 0.0 0.0 0.00 0.00 0.00 63 1015.5
20260507153552 64 0.0 0.0 0.00 0.00 0.00 61 1015.3
20260507152210 65 0.0 0.0 0.00 0.00 0.00 60 1015.2
20260507150828 66 0.0 0.0 0.00 0.00 0.00 56 1015.3
20260507145445 67 0.0 0.0 0.00 0.00 0.00 55 1015.1
20260507144103 66 0.0 0.0 0.00 0.00 0.00 56 1015.1
20260507142722 68 0.0 0.0 0.00 0.00 0.00 52 1014.8
20260507141343 70 0.0 0.0 0.00 0.00 0.00 49 1014.6
20260507140001 71 0.0 0.0 0.00 0.00 0.00 46 1014.3
20260507134619 74 0.0 0.0 0.00 0.00 0.00 44 1014.2
20260507133236 76 0.0 0.0 0.00 0.00 0.00 41 1013.7
20260507131856 77 0.0 0.0 0.00 0.00 0.00 40 1013.4
20260507130513 80 0.0 0.0 0.00 0.00 0.00 36 1013.3
20260507125135 81 0.0 0.0 0.00 0.00 0.00 34 1013.0
20260507123754 84 0.0 0.0 0.00 0.00 0.00 32 1012.9
20260507122412 87 0.0 0.0 0.00 0.00 0.00 30 1012.9
20260507121026 93 0.0 0.0 0.00 0.00 0.00 26 1012.7
20260507115658 101 0.0 0.0 0.00 0.00 0.00 21 1012.3
20260507114301 89 0.0 0.0 0.00 0.00 0.00 30 1012.3
20260507112916 85 0.0 0.0 0.00 0.00 0.00 34 1012.2
20260507111534 86 0.0 0.0 0.00 0.00 0.00 32 1012.1
20260507110150 86 0.0 0.0 0.00 0.00 0.00 33 1012.0
20260507104802 83 0.0 0.0 0.00 0.00 0.00 35 1012.2
20260507103424 84 0.0 0.0 0.00 0.00 0.00 34 1012.2
20260507102040 90 0.0 0.0 0.00 0.00 0.00 30 1011.9
20260507100659 92 0.0 0.0 0.00 0.00 0.00 28 1011.5